RYR48JK EPWA-LIRP

Flight info

Callsign RYR48JK
Flight time 1h 48m
Altitude 34000
Route EVINA DCT LIGDI DCT SKARY DCT RADLY DCT RIFEN/N0459F330 DCT ROSKA DCT AGOMO DCT GAVRA DCT KUGIX Y662 AKUTO L12 MAREL
Aircraft B738/M-SDE2E3FGHIRWXY/LB1

Departure

Time 2026-05-04 14:26
Airport Warsaw Chopin Airport (EPWA)

Arrival

Time 2026-05-04 16:14
Airport Pisa International Airport (LIRP)
Time Latitude Longitude Altitude Speed Heading
2026-05-04 14:03 52.17382 20.96507 333 ft 0 kts 207°
2026-05-04 14:19 52.17324 20.96466 337 ft 8 kts 187°
2026-05-04 14:19 52.17267 20.96505 334 ft 11 kts 152°
2026-05-04 14:19 52.17182 20.96580 336 ft 16 kts 152°
2026-05-04 14:19 52.17082 20.96667 335 ft 16 kts 153°
2026-05-04 14:20 52.16966 20.96766 334 ft 22 kts 152°
2026-05-04 14:20 52.16834 20.96881 336 ft 20 kts 152°
2026-05-04 14:20 52.16723 20.96978 335 ft 16 kts 152°
2026-05-04 14:21 52.16542 20.97136 334 ft 20 kts 153°
2026-05-04 14:21 52.16418 20.97245 335 ft 19 kts 152°
2026-05-04 14:21 52.16313 20.97337 333 ft 17 kts 151°
2026-05-04 14:21 52.16194 20.97440 335 ft 19 kts 152°
2026-05-04 14:22 52.16086 20.97535 334 ft 19 kts 151°
2026-05-04 14:22 52.15939 20.97663 336 ft 26 kts 152°
2026-05-04 14:22 52.15787 20.97795 338 ft 23 kts 151°
2026-05-04 14:22 52.15663 20.97906 334 ft 18 kts 150°
2026-05-04 14:23 52.15811 20.98160 337 ft 25 kts 24°
2026-05-04 14:23 52.15959 20.98270 333 ft 22 kts 24°
2026-05-04 14:23 52.16058 20.98343 333 ft 13 kts 24°
2026-05-04 14:24 52.16126 20.98316 332 ft 11 kts 294°
2026-05-04 14:24 52.16127 20.98311 336 ft 0 kts 294°
2026-05-04 14:25 52.16294 20.97711 335 ft 95 kts 294°
2026-05-04 14:25 52.16672 20.96365 336 ft 163 kts 294°
2026-05-04 14:26 52.17210 20.94496 733 ft 195 kts 295°
2026-05-04 14:26 52.17811 20.92427 1584 ft 202 kts 291°
2026-05-04 14:26 52.18260 20.90211 2264 ft 212 kts 273°
2026-05-04 14:26 52.18052 20.87797 2730 ft 223 kts 253°
2026-05-04 14:27 52.17632 20.85460 3769 ft 212 kts 254°
2026-05-04 14:27 52.17244 20.82926 3948 ft 246 kts 256°
2026-05-04 14:27 52.16886 20.80113 4504 ft 259 kts 257°
2026-05-04 14:27 52.16524 20.77271 5519 ft 256 kts 257°
2026-05-04 14:28 52.16083 20.74460 6350 ft 258 kts 245°
2026-05-04 14:28 52.14914 20.72246 7104 ft 265 kts 212°
2026-05-04 14:28 52.13221 20.71021 7892 ft 271 kts 201°
2026-05-04 14:28 52.11408 20.70100 8657 ft 274 kts 199°
2026-05-04 14:29 52.07679 20.68392 10208 ft 281 kts 199°
2026-05-04 14:29 52.03639 20.66521 10738 ft 325 kts 199°
2026-05-04 14:30 52.01400 20.65468 10912 ft 346 kts 199°
2026-05-04 14:30 51.99031 20.64349 11220 ft 361 kts 199°
2026-05-04 14:30 51.94167 20.62054 12493 ft 368 kts 199°
2026-05-04 14:31 51.91699 20.60887 13188 ft 370 kts 199°
2026-05-04 14:31 51.86710 20.58520 14493 ft 376 kts 199°
2026-05-04 14:32 51.81648 20.56119 15745 ft 382 kts 199°
2026-05-04 14:32 51.79089 20.54906 16338 ft 384 kts 199°
2026-05-04 14:32 51.76505 20.53681 16884 ft 389 kts 199°
2026-05-04 14:32 51.73903 20.52452 17477 ft 391 kts 199°
2026-05-04 14:33 51.71284 20.51216 18046 ft 393 kts 199°
2026-05-04 14:33 51.68647 20.49972 18603 ft 396 kts 199°
2026-05-04 14:33 51.65984 20.48717 19015 ft 402 kts 199°
2026-05-04 14:33 51.63285 20.47447 19462 ft 406 kts 199°
2026-05-04 14:34 51.60559 20.46166 19934 ft 410 kts 199°
2026-05-04 14:34 51.57811 20.44877 20374 ft 414 kts 199°
2026-05-04 14:34 51.55034 20.43576 20775 ft 418 kts 199°
2026-05-04 14:34 51.52232 20.42264 21195 ft 422 kts 198°
2026-05-04 14:35 51.49395 20.40938 21588 ft 426 kts 199°
2026-05-04 14:35 51.46538 20.39603 21981 ft 429 kts 198°
2026-05-04 14:35 51.43692 20.38278 22353 ft 433 kts 198°
2026-05-04 14:35 51.40789 20.36926 22721 ft 436 kts 198°
2026-05-04 14:36 51.37892 20.35444 23066 ft 438 kts 204°
2026-05-04 14:36 51.35099 20.33443 23423 ft 440 kts 207°
2026-05-04 14:36 51.32332 20.31305 23770 ft 443 kts 208°
2026-05-04 14:36 51.29545 20.29122 24103 ft 447 kts 208°
2026-05-04 14:37 51.26743 20.26938 24459 ft 449 kts 208°
2026-05-04 14:37 51.23922 20.24760 24833 ft 451 kts 207°
2026-05-04 14:37 51.21085 20.22593 25186 ft 453 kts 207°
2026-05-04 14:37 51.18223 20.20423 25508 ft 455 kts 207°
2026-05-04 14:38 51.15353 20.18260 25808 ft 458 kts 207°
2026-05-04 14:38 51.12466 20.16089 26114 ft 460 kts 207°
2026-05-04 14:38 51.09564 20.13912 26424 ft 461 kts 207°
2026-05-04 14:38 51.06694 20.11763 26702 ft 464 kts 207°
2026-05-04 14:39 51.03764 20.09571 26972 ft 466 kts 206°
2026-05-04 14:39 51.00816 20.07367 27235 ft 468 kts 206°
2026-05-04 14:39 50.97868 20.05168 27502 ft 469 kts 206°
2026-05-04 14:40 50.91940 20.00751 28185 ft 469 kts 206°
2026-05-04 14:40 50.88994 19.98561 28592 ft 467 kts 206°
2026-05-04 14:40 50.86058 19.96381 29042 ft 464 kts 206°
2026-05-04 14:40 50.83142 19.94220 29448 ft 462 kts 206°
2026-05-04 14:41 50.80226 19.92060 29747 ft 463 kts 206°
2026-05-04 14:41 50.77299 19.89896 30024 ft 464 kts 206°
2026-05-04 14:41 50.71456 19.85583 30681 ft 463 kts 206°
2026-05-04 14:42 50.65630 19.81295 31320 ft 462 kts 206°
2026-05-04 14:42 50.62719 19.79158 31618 ft 462 kts 206°
2026-05-04 14:42 50.59799 19.77018 31927 ft 461 kts 206°
2026-05-04 14:43 50.56929 19.74916 32233 ft 460 kts 206°
2026-05-04 14:43 50.53987 19.72765 32498 ft 461 kts 206°
2026-05-04 14:43 50.51115 19.70668 32766 ft 461 kts 206°
2026-05-04 14:43 50.48170 19.68520 33059 ft 460 kts 206°
2026-05-04 14:44 50.45309 19.66435 33334 ft 459 kts 206°
2026-05-04 14:44 50.42410 19.64326 33619 ft 458 kts 206°
2026-05-04 14:44 50.39519 19.62225 33880 ft 458 kts 206°
2026-05-04 14:44 50.36620 19.60122 33975 ft 461 kts 206°
2026-05-04 14:45 50.30779 19.55893 33979 ft 462 kts 206°
2026-05-04 14:45 50.24944 19.51799 33974 ft 457 kts 205°
2026-05-04 14:46 50.19119 19.47844 33982 ft 455 kts 205°
2026-05-04 14:46 50.13342 19.43926 33970 ft 455 kts 205°
2026-05-04 14:47 50.07542 19.39984 33977 ft 455 kts 205°
2026-05-04 14:47 50.01735 19.36039 33976 ft 455 kts 205°
2026-05-04 14:48 49.95923 19.32099 33975 ft 456 kts 205°
2026-05-04 14:48 49.90091 19.28159 33987 ft 458 kts 205°
2026-05-04 14:49 49.84240 19.24217 33995 ft 460 kts 205°
2026-05-04 14:49 49.78358 19.20263 33993 ft 462 kts 205°
2026-05-04 14:50 49.72447 19.16299 33992 ft 463 kts 205°
2026-05-04 14:50 49.66526 19.12340 34000 ft 464 kts 205°
2026-05-04 14:51 49.60589 19.08380 34000 ft 464 kts 205°
2026-05-04 14:51 49.54696 19.04461 34011 ft 464 kts 205°
2026-05-04 14:52 49.48771 19.00528 34007 ft 463 kts 205°
2026-05-04 14:52 49.43150 18.95798 34012 ft 459 kts 219°
2026-05-04 14:53 49.38481 18.89182 34019 ft 457 kts 225°
2026-05-04 14:53 49.33909 18.82432 34013 ft 456 kts 225°
2026-05-04 14:54 49.29316 18.75733 34012 ft 455 kts 225°
2026-05-04 14:54 49.24711 18.69087 34019 ft 455 kts 225°
2026-05-04 14:55 49.20092 18.62454 34018 ft 454 kts 225°
2026-05-04 14:55 49.15480 18.55852 34022 ft 454 kts 225°
2026-05-04 14:56 49.10865 18.49258 34014 ft 454 kts 225°
2026-05-04 14:56 49.06278 18.42724 34022 ft 454 kts 225°
2026-05-04 14:57 49.01655 18.36154 34015 ft 454 kts 225°
2026-05-04 14:57 48.97805 18.30696 34021 ft 455 kts 225°
2026-05-04 14:58 48.93169 18.24142 34022 ft 455 kts 225°
2026-05-04 14:58 48.88521 18.17587 34021 ft 456 kts 225°
2026-05-04 14:59 48.83851 18.11021 34018 ft 457 kts 225°
2026-05-04 15:00 48.76833 18.01177 34021 ft 458 kts 225°
2026-05-04 15:00 48.72144 17.94626 34028 ft 458 kts 225°
2026-05-04 15:01 48.65142 17.84876 34016 ft 458 kts 225°
2026-05-04 15:01 48.60450 17.78362 34018 ft 457 kts 225°
2026-05-04 15:02 48.55758 17.71865 34020 ft 457 kts 224°
2026-05-04 15:02 48.51069 17.65391 34022 ft 456 kts 224°
2026-05-04 15:03 48.46386 17.58940 34021 ft 456 kts 224°
2026-05-04 15:03 48.41694 17.52496 34017 ft 456 kts 224°
2026-05-04 15:04 48.37004 17.46069 34010 ft 456 kts 224°
2026-05-04 15:04 48.32340 17.39697 34006 ft 455 kts 224°
2026-05-04 15:05 48.27648 17.33301 34001 ft 455 kts 224°
2026-05-04 15:05 48.22953 17.26919 34000 ft 455 kts 224°
2026-05-04 15:06 48.18256 17.20552 33994 ft 455 kts 224°
2026-05-04 15:07 48.11206 17.11024 33994 ft 455 kts 224°
2026-05-04 15:07 48.06506 17.04691 33991 ft 455 kts 224°
2026-05-04 15:08 48.01804 16.98371 33993 ft 454 kts 224°
2026-05-04 15:08 47.97108 16.92077 33981 ft 453 kts 224°
2026-05-04 15:09 47.92435 16.85830 33988 ft 453 kts 224°
2026-05-04 15:09 47.87736 16.79564 33981 ft 453 kts 224°
2026-05-04 15:10 47.80679 16.70185 33980 ft 453 kts 224°
2026-05-04 15:11 47.73623 16.60842 33985 ft 453 kts 224°
2026-05-04 15:11 47.68914 16.54624 33981 ft 453 kts 224°
2026-05-04 15:12 47.64198 16.48415 33982 ft 453 kts 224°
2026-05-04 15:12 47.59505 16.42249 33977 ft 453 kts 224°
2026-05-04 15:13 47.54781 16.36059 33982 ft 453 kts 224°
2026-05-04 15:13 47.50055 16.29883 33985 ft 453 kts 224°
2026-05-04 15:14 47.45327 16.23720 33977 ft 453 kts 223°
2026-05-04 15:14 47.40593 16.17566 33979 ft 453 kts 223°
2026-05-04 15:15 47.35860 16.11425 33984 ft 453 kts 223°
2026-05-04 15:15 47.31122 16.05294 33973 ft 453 kts 223°
2026-05-04 15:16 47.24036 15.96151 33978 ft 453 kts 223°
2026-05-04 15:17 47.16915 15.87001 33971 ft 453 kts 223°
2026-05-04 15:17 47.09795 15.77882 33969 ft 452 kts 223°
2026-05-04 15:18 47.05057 15.71833 33972 ft 451 kts 223°
2026-05-04 15:19 46.97942 15.62781 33978 ft 451 kts 223°
2026-05-04 15:19 46.90832 15.53764 33972 ft 451 kts 223°
2026-05-04 15:20 46.86078 15.47755 33973 ft 451 kts 223°
2026-05-04 15:20 46.81351 15.41794 33974 ft 451 kts 223°
2026-05-04 15:21 46.76597 15.35811 33971 ft 451 kts 223°
2026-05-04 15:22 46.69465 15.26861 33983 ft 451 kts 223°
2026-05-04 15:22 46.62817 15.17291 33995 ft 446 kts 237°
2026-05-04 15:23 46.59313 15.09849 33991 ft 446 kts 238°
2026-05-04 15:23 46.55821 15.02440 34002 ft 446 kts 237°
2026-05-04 15:24 46.48714 14.87639 34006 ft 446 kts 237°
2026-05-04 15:25 46.45143 14.80267 34006 ft 446 kts 237°
2026-05-04 15:26 46.39793 14.69249 34019 ft 445 kts 237°
2026-05-04 15:26 46.34465 14.58316 34023 ft 444 kts 237°
2026-05-04 15:27 46.29123 14.47404 34036 ft 442 kts 237°
2026-05-04 15:28 46.23792 14.36550 34046 ft 441 kts 237°
2026-05-04 15:29 46.18459 14.25738 34048 ft 440 kts 236°
2026-05-04 15:30 46.06007 14.00638 34065 ft 440 kts 236°
2026-05-04 15:31 46.00644 13.89902 34066 ft 440 kts 236°
2026-05-04 15:32 45.91370 13.72393 34069 ft 445 kts 223°
2026-05-04 15:34 45.78802 13.59308 34073 ft 447 kts 218°
2026-05-04 15:34 45.71253 13.51468 34072 ft 446 kts 218°
2026-05-04 15:35 45.63724 13.43642 34076 ft 445 kts 218°
2026-05-04 15:36 45.56208 13.35861 34075 ft 444 kts 218°
2026-05-04 15:36 45.51206 13.30698 34074 ft 443 kts 218°
2026-05-04 15:37 45.46209 13.25550 34078 ft 443 kts 218°
2026-05-04 15:37 45.41211 13.20414 34080 ft 442 kts 218°
2026-05-04 15:38 45.36221 13.15296 34086 ft 442 kts 218°
2026-05-04 15:38 45.31266 13.10228 34081 ft 441 kts 218°
2026-05-04 15:39 45.26276 13.05133 34086 ft 441 kts 217°
2026-05-04 15:40 45.18788 12.97509 34080 ft 441 kts 217°
2026-05-04 15:40 45.13799 12.92445 34072 ft 441 kts 217°
2026-05-04 15:41 45.08810 12.87387 34077 ft 441 kts 217°
2026-05-04 15:41 45.04665 12.83197 34072 ft 441 kts 217°
2026-05-04 15:42 44.99587 12.78315 34072 ft 442 kts 213°
2026-05-04 15:42 44.94241 12.74021 34077 ft 442 kts 211°
2026-05-04 15:43 44.88857 12.69811 34072 ft 442 kts 211°
2026-05-04 15:43 44.83492 12.65566 34070 ft 442 kts 211°
2026-05-04 15:44 44.78136 12.61293 34072 ft 442 kts 211°
2026-05-04 15:44 44.72794 12.57024 34073 ft 442 kts 212°
2026-05-04 15:45 44.67484 12.52791 34072 ft 442 kts 212°
2026-05-04 15:45 44.62135 12.48537 34077 ft 442 kts 212°
2026-05-04 15:46 44.56789 12.44296 34074 ft 442 kts 212°
2026-05-04 15:46 44.51436 12.40058 34072 ft 441 kts 212°
2026-05-04 15:47 44.46084 12.35830 34075 ft 441 kts 212°
2026-05-04 15:47 44.40729 12.31609 34075 ft 441 kts 212°
2026-05-04 15:48 44.35381 12.27402 34076 ft 441 kts 212°
2026-05-04 15:48 44.27392 12.21133 34089 ft 440 kts 212°
2026-05-04 15:49 44.22048 12.16951 34089 ft 440 kts 212°
2026-05-04 15:49 44.16704 12.12779 34086 ft 440 kts 212°
2026-05-04 15:50 44.11356 12.08610 34081 ft 440 kts 212°
2026-05-04 15:50 44.06002 12.04447 34081 ft 441 kts 212°
2026-05-04 15:51 44.00659 12.00301 33995 ft 433 kts 212°
2026-05-04 15:51 43.98043 11.98277 33471 ft 430 kts 211°
2026-05-04 15:51 43.95420 11.96245 32733 ft 433 kts 211°
2026-05-04 15:52 43.92768 11.94190 31858 ft 440 kts 211°
2026-05-04 15:52 43.90078 11.92110 30960 ft 446 kts 210°
2026-05-04 15:52 43.87474 11.90101 30359 ft 445 kts 210°
2026-05-04 15:52 43.84770 11.88017 29570 ft 447 kts 209°
2026-05-04 15:53 43.82041 11.85917 28634 ft 451 kts 210°
2026-05-04 15:53 43.79373 11.83569 27615 ft 456 kts 218°
2026-05-04 15:53 43.77000 11.80649 26602 ft 459 kts 226°
2026-05-04 15:53 43.74937 11.77249 25587 ft 463 kts 236°
2026-05-04 15:54 43.73174 11.73547 24887 ft 458 kts 237°
2026-05-04 15:54 43.71450 11.69869 24288 ft 451 kts 237°
2026-05-04 15:54 43.69749 11.66264 23677 ft 445 kts 237°
2026-05-04 15:54 43.68067 11.62737 23417 ft 432 kts 237°
2026-05-04 15:55 43.66436 11.59347 23160 ft 415 kts 237°
2026-05-04 15:55 43.64851 11.56069 22907 ft 409 kts 237°
2026-05-04 15:55 43.63265 11.52796 22666 ft 411 kts 237°
2026-05-04 15:55 43.61669 11.49503 22417 ft 413 kts 237°
2026-05-04 15:56 43.60094 11.46259 22164 ft 410 kts 237°
2026-05-04 15:56 43.58523 11.43026 21787 ft 406 kts 237°
2026-05-04 15:56 43.56999 11.39815 21314 ft 393 kts 240°
2026-05-04 15:56 43.55908 11.36427 20864 ft 382 kts 252°
2026-05-04 15:57 43.55262 11.32952 20414 ft 375 kts 259°
2026-05-04 15:57 43.55027 11.29378 19968 ft 374 kts 268°
2026-05-04 15:57 43.54992 11.25804 19527 ft 373 kts 268°
2026-05-04 15:57 43.54766 11.22268 19047 ft 369 kts 258°
2026-05-04 15:58 43.54236 11.18836 18478 ft 363 kts 256°
2026-05-04 15:58 43.53671 11.15478 17896 ft 358 kts 256°
2026-05-04 15:58 43.53118 11.12210 17333 ft 352 kts 256°
2026-05-04 15:58 43.52566 11.08899 16748 ft 346 kts 256°
2026-05-04 15:59 43.52037 11.05688 16167 ft 343 kts 256°
2026-05-04 15:59 43.51516 11.02492 15599 ft 341 kts 256°
2026-05-04 15:59 43.51000 10.99310 15026 ft 337 kts 256°
2026-05-04 15:59 43.50494 10.96184 14448 ft 332 kts 256°
2026-05-04 16:00 43.49995 10.93098 13875 ft 327 kts 256°
2026-05-04 16:00 43.49509 10.90071 13388 ft 321 kts 255°
2026-05-04 16:00 43.49026 10.87087 12879 ft 318 kts 255°
2026-05-04 16:00 43.48542 10.84124 12378 ft 316 kts 255°
2026-05-04 16:01 43.48071 10.81228 11888 ft 314 kts 255°
2026-05-04 16:01 43.47590 10.78258 11391 ft 312 kts 255°
2026-05-04 16:01 43.47120 10.75364 11174 ft 317 kts 255°
2026-05-04 16:01 43.46636 10.72400 11127 ft 317 kts 255°
2026-05-04 16:02 43.46157 10.69463 11082 ft 309 kts 255°
2026-05-04 16:02 43.45701 10.66658 11082 ft 293 kts 255°
2026-05-04 16:02 43.44812 10.61229 11098 ft 291 kts 255°
2026-05-04 16:03 43.44372 10.58549 11099 ft 291 kts 255°
2026-05-04 16:03 43.44248 10.55733 11090 ft 296 kts 280°
2026-05-04 16:03 43.45150 10.53173 10923 ft 304 kts 308°
2026-05-04 16:03 43.46766 10.51340 10764 ft 306 kts 330°
2026-05-04 16:04 43.48722 10.50410 10594 ft 296 kts 353°
2026-05-04 16:04 43.52807 10.50203 10114 ft 291 kts 358°
2026-05-04 16:04 43.54803 10.50149 9905 ft 288 kts 358°
2026-05-04 16:05 43.56317 10.50098 9825 ft 282 kts 358°
2026-05-04 16:05 43.57986 10.50032 9709 ft 276 kts 358°
2026-05-04 16:05 43.61724 10.49884 9058 ft 268 kts 360°
2026-05-04 16:06 43.63564 10.50157 8602 ft 264 kts 10°
2026-05-04 16:06 43.68298 10.51508 7258 ft 259 kts 11°
2026-05-04 16:07 43.70617 10.52150 6640 ft 253 kts 11°
2026-05-04 16:07 43.75562 10.53500 5502 ft 232 kts 11°
2026-05-04 16:08 43.77113 10.53962 5123 ft 225 kts 12°
2026-05-04 16:08 43.81248 10.55176 4999 ft 193 kts
2026-05-04 16:09 43.83830 10.54935 5012 ft 188 kts 321°
2026-05-04 16:09 43.84620 10.51840 4865 ft 175 kts 249°
2026-05-04 16:10 43.83139 10.49450 4075 ft 183 kts 206°
2026-05-04 16:11 43.79336 10.47137 2604 ft 194 kts 204°
2026-05-04 16:11 43.78141 10.46399 2322 ft 180 kts 204°
2026-05-04 16:12 43.75086 10.44491 1556 ft 145 kts 204°
2026-05-04 16:12 43.72346 10.42768 898 ft 153 kts 204°
2026-05-04 16:13 43.71705 10.42358 724 ft 153 kts 205°
2026-05-04 16:13 43.69949 10.40967 238 ft 142 kts 210°
2026-05-04 16:14 43.68443 10.39491 19 ft 102 kts 217°
2026-05-04 16:14 43.67749 10.38779 16 ft 44 kts 217°
2026-05-04 16:15 43.67530 10.38523 16 ft 11 kts 265°
2026-05-04 16:16 43.67563 10.38442 15 ft 0 kts 307°
2026-05-04 16:16 43.67575 10.38420 14 ft 9 kts 307°
2026-05-04 16:17 43.67757 10.38457 16 ft 25 kts 36°
2026-05-04 16:18 43.68418 10.39139 15 ft 49 kts 37°
2026-05-04 16:18 43.68676 10.39403 16 ft 44 kts 37°
2026-05-04 16:19 43.69324 10.40077 21 ft 24 kts 36°
2026-05-04 16:19 43.69582 10.40067 14 ft 13 kts 353°
2026-05-04 16:20 43.69694 10.39940 14 ft 10 kts 281°
2026-05-04 16:20 43.69703 10.39861 14 ft 1 kts 283°
2026-05-04 16:21 43.69763 10.39861 14 ft 0 kts
2026-05-04 16:22 43.69768 10.39862 14 ft 0 kts